Location: Belvedere Heights
(33.9836°N, 117.3109°W)
Time: 08:36:05
(UTC+00:00)

Cosmos 1378 - Pass Details

Date: 21 March 2023
Orbit: 464 x 471 km, 82.5° (Epoch: 01 June)

Event Time Altitude Azimuth Distance (km) Brightness Sun altitude
Rises 13:21:03 0° 183° (S) 2,499 6.6 -7.2°
Reaches altitude 10° 13:23:08 10° 182° (S) 1,624 5.7 -6.8°
Maximum altitude 13:26:40 78° 97° (E) 483 3.2 -6.0°
Drops below altitude 10° 13:30:13 10° 9° (N) 1,628 5.9 -5.3°
Sets 13:32:18 0° 8° (N) 2,506 6.9 -4.9°
